Tracking 19415 objects as of 16-Dec-2018
HD Live streaming from Space Station
objects crossing your sky now

SOMP-2

Track SOMP-2 now!
10-day predictions
SOMP-2 is classified as:


NORAD ID: 42701
Int'l Code: 1998-067LJ
Perigee: 322.2 km
Apogee: 327.4 km
Inclination: 51.6 °
Period: 90.9 minutes
Semi major axis: 6695 km
RCS: Unknown
Launch date: November 20, 1998
Source: Germany (GER)
Launch site: TYURATAM MISSILE AND SPACE COMPLEX (TTMTR)

Uplink (MHz):
Downlink (MHz): 437.405
Beacon (MHz):
Mode: 9600bps GMSK
Call sign:
Status: Inactive

aabbcc
Your satellite tracking list
Your tracking list is empty




NASA's NSSDC Master Catalog

Two Line Element Set (TLE):
1 42701U 98067LJ  18349.86804892 +.00063580 +00000-0 +27175-3 0  9991
2 42701 051.6318 140.3666 0003862 227.9787 132.0888 15.84537836090646
Source of the keplerian elements: AMSAT